This is the latest recevied weather packets stored in our database for station/object KC8P. If no packets are shown the sender has not sent any weather packets the latest 10 day(s).
| Time | Temp. | Humidity | Pressure | Rain* | Wind** | Luminosity | Snow |
|---|---|---|---|---|---|---|---|
| 1778259782 | 14.44° C | 41% | 1010.8 hPa | 0 mm | - | 727 W/m² | - |
| 1778259729 | 14.44° C | 39% | 1010.8 hPa | 0 mm | - | 728 W/m² | - |
| 1778259664 | 14.44° C | 39% | 1010.8 hPa | 0 mm | - | 736 W/m² | - |
| 1778259585 | 14.44° C | 39% | 1010.8 hPa | 0 mm | - | 744 W/m² | - |
| 1778259519 | 14.44° C | 40% | 1010.8 hPa | 0 mm | - | 742 W/m² | - |
| 1778259455 | 14.44° C | 39% | 1010.8 hPa | 0 mm | - | 738 W/m² | - |
| 1778259388 | 14.44° C | 39% | 1010.8 hPa | 0 mm | - | 746 W/m² | - |
| 1778259323 | 14.44° C | 40% | 1010.8 hPa | 0 mm | - | 752 W/m² | - |
| 1778259257 | 14.44° C | 41% | 1010.8 hPa | 0 mm | - | 750 W/m² | - |
| 1778259192 | 14.44° C | 41% | 1010.8 hPa | 0 mm | - | 755 W/m² | - |
| 1778259125 | 14.44° C | 38% | 1010.8 hPa | 0 mm | - | 752 W/m² | - |
| 1778259061 | 14.44° C | 39% | 1010.8 hPa | 0 mm | - | 757 W/m² | - |
| 1778258995 | 15° C | 38% | 1010.8 hPa | 0 mm | - | 755 W/m² | - |
| 1778258930 | 15° C | 37% | 1010.8 hPa | 0 mm | - | 751 W/m² | - |
| 1778258872 | 15° C | 40% | 1010.8 hPa | 0 mm | - | 769 W/m² | - |
| 1778258863 | 15° C | 39% | 1010.8 hPa | 0 mm | - | 762 W/m² | - |
| 1778258855 | 15° C | 38% | 1010.8 hPa | 0 mm | - | 759 W/m² | - |
| 1778258667 | 14.44° C | 39% | 1011.1 hPa | 0 mm | - | 750 W/m² | - |
| 1778258600 | 14.44° C | 38% | 1010.8 hPa | 0 mm | - | 740 W/m² | - |
| 1778258555 | 15° C | 38% | 1011.1 hPa | 0 mm | - | 744 W/m² | - |
| 1778258546 | 15° C | 37% | 1011.1 hPa | 0 mm | - | 747 W/m² | - |
| 1778258402 | 14.44° C | 37% | 1011.1 hPa | 0 mm | - | 749 W/m² | - |
| 1778258336 | 14.44° C | 37% | 1011.1 hPa | 0 mm | - | 739 W/m² | - |
| 1778258270 | 15° C | 38% | 1011.1 hPa | 0 mm | - | 736 W/m² | - |
| 1778258206 | 15° C | 39% | 1011.1 hPa | 0 mm | - | 737 W/m² | - |
* Rain latest hour (hover to see other rain measurements)
** Current wind speed in m/s (hover to see current wind gust speed)